{"data":{"norad_id":42951,"epoch":"2026-09-20T00:20:08.946816Z","epoch_age_seconds":67824,"freshness":"FRESH","line1":"1 42951U 17059B   26263.01399244 -.00000354  00000+0  00000+0 0  9995","line2":"2 42951   0.0469 359.0656 0001583 106.8467   7.8732  1.00270393 32754","mean_motion":1.00270393,"eccentricity":0.0001583,"inclination_deg":0.0469,"raan_deg":359.0656,"arg_perigee_deg":106.8467,"mean_anomaly_deg":7.8732,"bstar":0,"rev_number":3275,"period_min":1436.1168405912,"perigee_km":35780.310454993,"apogee_km":35793.659932679,"semimajor_km":42165.122193836,"source":"CELESTRAK","updated_at":"2026-09-20T09:00:35.257096Z"}}